Погода Чюльбю

Погода Чюльбю : погода сейчас, прогноз погоды и архив. Всё, что Вы хотите узнать о погоде Чюльбю!

Хотите узнать прогноз погоды Чюльбю? Тогда Вам сюда: Погода Чюльбю

Поиск расширенной информации на нашем сайте:

Другие новости

Новости СМИ2

Главная страница сайта

Новости сайта

03.07.2017

Напоминаем, что на нашем специализированном сайте Метеоцентр.Азия вы можете получить высокодетализированные автоматические прогнозы погоды по пунктам России, СНГ и мира в авиационном формате (включающие направление и скорость ветра, видимость, явления погоды, количество и форму облачности, нижнюю и верхнюю границу облачности).


Погода Чюльбю - сегодня

Время (UTC), дата Ветер
(°,м/с) 
Видим.   Явления Облачность Т
(°С)
Тd
(°С)
f(%) Тe
(°С)
Pmin
(гПа)
dP
(гПа)
Po
(мм)
O2
(г/м3)
Тmin Tmax R s Состояние
почвы
18 20.04.18 210 (ЮЗ) 20000 м    10/10 600 м кучево-дожд. 
[Cb cap]
-2.2 -5.1 80 -2  1014.8  1.2  737  300           
21 20.04.18 220 (ЮЗ) 20000 м    10/10 600 м кучево-дожд. 
[Cb cap]
-2.3 -5.2 80 -2  1017.8  2.9  739  301           
00 21.04.18 тихо ()   20000 м    10/6 600 м кучево-дожд., верхняя 
[Cb cap|Ci fib]
+1.4 -3.1 72 +1  1018.8  1.5  718  288  -3.1      11  мокрый или
старый снег
50-90% 
03 21.04.18 290 (З) 20000 м    10/0 кучево-дожд., верхняя 
[Cb cap|Ci fib]
+3.6 -7.9 43 +3  1019.6  0.9  741  295           
06 21.04.18 030 (СВ) 20000 м    9/6 600 м кучево-дожд., верхняя 
[Cb cap|Ci fib]
+3.3 -9.9 37 +3  1019.4  -0.2  741  296           
09 21.04.18 260 (З) 20000 м    9/3 600 м верхняя 
[Sc|Ci fib]
+2.8 -11.4 34 +4  1020.4  0.9  742  297           
12 21.04.18 тихо ()   20000 м    8/0 верхняя 
[Ci fib]
-2.9 -9.6 60 -3  1023.1  1.9  743  304    +4.1       
15 21.04.18 170 (Ю) 20000 м    4/0 верхняя 
[Ci fib]
-5.4 -10.5 67 -5  1025.5  744  307           
18 21.04.18 тихо ()   20000 м    4/0 верхняя 
[Ci fib]
-6.7 -10.2 76 -7  1025.2  0.6  692  287           
21 21.04.18 тихо ()   20000 м    8/3 600 м верхняя 
[Sc|Ci fib]
-10.1 -11.4 90 -10  1026.6  745  313           
00 22.04.18 250 (З) 20000 м    5/3 600 м верхняя 
[Sc|Ci fib]
-0.9 -8.2 58 -2  1026  0.4  745  302  -10.4      10  мокрый или
старый снег
50-90% 
03 22.04.18 260 (З) 20000 м    10/8 600 м кучево-дожд. 
[Cb cap]
+4 -9.7 36 +4  1025.2  -0.2  745  297           
06 22.04.18 120 (ЮВ) 20000 м    9/4 600 м кучево-дожд., верхняя 
[Cb cap|Ci fib]
+6.1 -9.3 32 +7  1022.5  -2.3  743  294           
09 22.04.18 030 (СВ) 20000 м    10/0 верхняя 
[Ci fib]
+6.4 -10.3 29 +7  1021.1  -1.2  743  293           
12 22.04.18 250 (З) 20000 м    ясно 
-1.9 -6.1 73 -1  1022.1  -0.1  742  302    +7.2       
15 22.04.18 190 (Ю) 20000 м    3/0 верхняя 
[Ci fib]
-4.4 -7.5 79 -4  1022.3  742  305           
18 22.04.18 тихо ()   20000 м    3/0 верхняя 
[Ci fib]
-7.5 -8.5 93 -8  1023.1  0.4  743  309           
21 22.04.18 тихо ()   20000 м    10/10 600 м 
[Sc]
-6.4 -8 88 -6  1023.4  0.3  743  307           
03 23.04.18 100 (В) 20000 м    9/5 600 м средняя 
[Sc|Ac trans]
+5.3 -6 44 +6  1018.1  -3.2  740  293           
06 23.04.18 220 (ЮЗ) 20000 м    10/6 600 м средняя, верхняя 
[Sc|Ac trans|Ci fib]
+10.6 -2.4 40 +12  1014.5  -2.9  738  286           
09 23.04.18 тихо ()   20000 м    10/3 600 м средняя 
[Sc|As trans]
+10.7 -2.7 39 +11  1012.5  -2  737  286           
15 23.04.18 тихо ()   20000 м    3/0 верхняя 
[Ci fib]
-1.8 -3.6 87 -2  1012.2  -1  735  299           
18 23.04.18 тихо ()   20000 м    ясно 
-4.3 -5.2 93 -4  1011.4  -1.1  734  301           
21 23.04.18 тихо ()   20000 м    10/0 средняя, верхняя 
[Ac As|Ci fib]
-4.8 -5.8 93 -5  1010.9  -0.5  734  302           
00 24.04.18 030 (СВ) 20000 м    10/0 средняя, верхняя 
[Ac As|Ci fib]
+2.1 -3.9 64 +3  1010.3  0.2  734  294  -5.2      мокрый или
старый снег
10-40% 
Время (UTC), дата Ветер
(°,м/с) 
Видим.   Явления Облачность Т
(°С)
Тd
(°С)
f(%) Тe
(°С)
Pmin
(гПа)
dP
(гПа)
Po
(мм)
O2
(г/м3)
Тmin Tmax R s Состояние
почвы

Для получения пояснительной информации подведите курсор к названию столбца.

ПОГОДА Чюльбю - архив

Всё, что Вы хотите узнать о погоде Чюльбю - удобно и подробно!

Выберите нужную дату (начиная с 1 января 2015* года) и нажмите кнопку "Найти".
Будут отображены архивные сводки погоды по пункту Чюльбю, начиная с указанной даты.


Отображать данные в формате CSV (для использования в таблицах Excel)


Внимание! Наш архив погоды предназначен исключительно для личного некоммерческого использования в познавательных целях. Если Вам необходимы официальные справки о состоянии погоды (для производственных, юридических, коммерческих и т.п. целей), обращайтесь в органы Росгидромета.

*Примечание: данная дата относится к архиву по метеостанциям СССР (Россия, СНГ, Балтия).
Архив по метеостанциям Зарубежной Европы и Азии (кроме Китая) хранится 10 дней, по другим регионам земного шара (Китай, Африка, Америка, Австралия, Океания) - 1 день.

Чюльбю - район местоположения метеостанции


Название, широта, долгота, высота метеостанции:
Чюльбю 57.8°ш. 130.9°д. 255 м над ур. моря [Российская Федерация]

Дополнительная информация

В oтличие oт бoльшинства пoгoдных сайтoв мы публикуем пoдрoбную метеoинфoрмацию в детальнoм прoфессиoнальнoм фoрмате.

Характеристики температуры и влажнoсти вoздуха измеряются на высoте 2 м в тени вдали oт зданий и деревьев.
Скoрoсть ветра измеряется на высoте 10 м (на урoвне рoста челoвека скoрoсть ветра ниже в 1.5-2 раза). Если метеoстанция нахoдится в гoрoде или в лесу, тo скoрoсть ветра занижена на 2-4 м/с пo сравнению с oткрытым местoм. Скoрoсть ветра над акватoриями крупных рек и oзёр, а также на вершинах хoлмoв на 2-5 м/с выше, чем в oбычных услoвиях.
Атмoсфернoе давление в разных тoчках местнoсти мoжет значительнo oтличаться oт давления на метеoстанции, в зависимoсти oт услoвий рельефа (при пoдъёме на 10 м давление пoнижается примернo на 1 мм рт.ст.).